This demonstration page uses our WeatherBlox Daily Observations layout. Learn more.

Hourly Observations for July 1, 2018

Temp ( °F °C ) Dew Point ( °F °C ) Humidity (%) Winds ( mph kmh ) Pressure ( in mb ) Visibility ( mi km ) Precip ( " mm )
12:15 am 00:15 Cloudy with Thunderstorms 61 16 60 15.3 96 96 NNW 18 30 29.94 1014 10 16.0934 0.01 0.254
12:35 am 00:35 Partly Cloudy 60 15.7 58 14.7 94 94 N 18 30 29.91 1013 10 16.0934 0.01 0.254
12:55 am 00:55 Clear 60 15.5 58 14.6 94 94 N 15 24 29.94 1014 10 16.0934 0.01 0.254
1:15 am 01:15 Partly Cloudy 60 15.6 58 14.5 93 93 NNE 22 35 29.85 1011 10 16.0934 0 0
1:35 am 01:35 Partly Cloudy 60 15.7 58 14.5 93 93 N 16 26 29.85 1011 10 16.0934 0 0
1:55 am 01:55 Clear 60 15.5 58 14.3 93 93 NNE 12 19 29.85 1011 10 16.0934 0 0
2:15 am 02:15 Clear 59 15.2 58 14.3 94 94 NNE 13 20 29.85 1011 10 16.0934 0 0
2:35 am 02:35 Clear 59 15.1 57 14.1 94 94 N 7 11 29.91 1013 10 16.0934 0 0
2:55 am 02:55 Clear 59 14.8 57 14 95 95 NNW 5 7 29.91 1013 10 16.0934 0 0
3:15 am 03:15 Clear 58 14.3 57 13.9 97 97 NW 6 9 29.91 1013 10 16.0934 0 0
3:35 am 03:35 Clear 57 14 57 13.7 98 98 NW 6 9 29.91 1013 10 16.0934 0 0
3:55 am 03:55 Clear 57 13.7 56 13.6 99 99 NW 7 11 29.91 1013 10 16.0934 0 0
4:15 am 04:15 Clear 57 13.8 56 13.6 99 99 WNW 5 7 29.91 1013 10 16.0934 0 0
4:35 am 04:35 Clear 57 13.8 56 13.6 99 99 WNW 6 9 29.91 1013 10 16.0934 0 0
4:55 am 04:55 Clear 57 13.7 56 13.5 99 99 W 8 13 29.94 1014 10 16.0934 0 0
5:15 am 05:15 Clear 56 13.6 56 13.5 99 99 W 5 7 29.94 1014 10 16.0934 0 0
5:35 am 05:35 Clear 57 13.7 56 13.5 99 99 WNW 7 11 29.94 1014 10 16.0934 0 0
5:55 am 05:55 Clear 57 13.7 56 13.1 96 96 WNW 7 11 29.94 1014 10 16.0934 0 0
6:15 am 06:15 Sunny 56 13.5 56 13.1 97 97 WNW 8 13 29.94 1014 10 16.0934 0 0
6:35 am 06:35 Sunny 56 13.6 56 13.2 97 97 WNW 8 13 29.97 1015 10 16.0934 0 0
6:55 am 06:55 Sunny 57 13.8 56 13.3 97 97 WNW 6 9 29.97 1015 10 16.0934 0 0
7:15 am 07:15 Sunny 57 14.1 56 13.5 96 96 W 7 11 29.97 1015 10 16.0934 0 0
7:35 am 07:35 Sunny 58 14.5 57 13.8 96 96 W 8 13 29.97 1015 10 16.0934 0 0
7:55 am 07:55 Sunny 60 15.5 57 14.1 91 91 WNW 7 11 29.97 1015 10 16.0934 0 0
8:15 am 08:15 Sunny 62 16.4 58 14.5 89 89 WNW 7 11 29.94 1014 10 16.0934 0 0
8:35 am 08:35 undefined 62 16.7 58 14.6 88 88 WNW 8 13 29.94 1014 N/A 0 0
8:55 am 08:55 Sunny 63 17.2 58 14.7 85 85 WNW 8 13 29.94 1014 10 16.0934 0 0
9:15 am 09:15 Sunny 64 18 59 14.9 82 82 W 7 11 29.94 1014 10 16.0934 0 0
9:35 am 09:35 Sunny 64 18 58 14.6 81 81 W 8 13 29.94 1014 10 16.0934 0 0
9:55 am 09:55 Sunny 65 18.6 59 15.1 80 80 W 6 9 29.94 1014 10 16.0934 0 0
10:15 am 10:15 Sunny 67 19.2 59 15.2 78 78 W 7 11 29.94 1014 10 16.0934 0 0
10:35 am 10:35 Sunny 67 19.7 59 15.1 75 75 WNW 7 11 29.91 1013 10 16.0934 0 0
10:55 am 10:55 Sunny 68 20.1 58 14.5 70 70 WNW 8 13 29.91 1013 10 16.0934 0 0
11:15 am 11:15 Sunny 69 20.6 58 14.2 67 67 WNW 6 9 29.91 1013 10 16.0934 0 0
11:35 am 11:35 Sunny 70 21.1 59 14.8 67 67 NW 8 13 29.91 1013 10 16.0934 0 0
11:55 am 11:55 Sunny 71 21.4 58 14.4 65 65 WNW 8 13 29.91 1013 10 16.0934 0 0
12:15 pm 12:15 Sunny 72 22.1 58 14.6 63 63 W 7 11 29.91 1013 10 16.0934 0 0
12:35 pm 12:35 Sunny 72 22.1 59 14.8 63 63 NW 6 9 29.91 1013 10 16.0934 0 0
12:55 pm 12:55 Sunny 73 22.5 59 14.8 62 62 NW 7 11 29.91 1013 10 16.0934 0 0
1:15 pm 13:15 Sunny 73 22.7 59 15 62 62 NNW 7 11 29.94 1014 10 16.0934 0 0
1:35 pm 13:35 Sunny 73 23 60 15.6 63 63 NW 9 15 29.94 1014 10 16.0934 0 0
1:55 pm 13:55 Sunny 73 23 60 15.7 64 64 WNW 6 9 29.91 1013 10 16.0934 0 0
2:15 pm 14:15 Sunny 74 23.1 60 15.7 63 63 NNW 3 6 29.88 1012 10 16.0934 0 0
2:35 pm 14:35 Sunny 74 23.6 62 16.5 65 65 N 6 9 29.88 1012 10 16.0934 0 0
2:55 pm 14:55 Sunny 75 23.8 62 16.4 63 63 NNE 6 9 29.88 1012 10 16.0934 0 0
3:15 pm 15:15 Sunny 75 23.9 61 16.1 62 62 Calm 29.88 1012 10 16.0934 0 0
3:35 pm 15:35 Sunny 75 24.1 62 16.5 63 63 NNE 3 6 29.88 1012 10 16.0934 0 0
3:55 pm 15:55 Sunny 76 24.5 60 15.8 58 58 Calm 29.88 1012 10 16.0934 0 0
4:15 pm 16:15 Sunny 76 24.7 61 16.1 59 59 Calm 29.88 1012 10 16.0934 0 0
4:35 pm 16:35 Sunny 77 24.9 61 16 58 58 Calm 29.88 1012 10 16.0934 0 0
4:55 pm 16:55 Partly Cloudy 77 25 62 16.4 59 59 S 5 7 29.88 1012 10 16.0934 0 0
5:15 pm 17:15 Partly Cloudy 76 24.6 61 16.1 59 59 Calm 29.88 1012 10 16.0934 0 0
5:35 pm 17:35 Sunny 76 24.3 62 16.6 62 62 E 5 7 29.88 1012 10 16.0934 0 0
5:55 pm 17:55 Sunny 77 25 62 16.4 59 59 Calm 29.88 1012 10 16.0934 0 0
6:15 pm 18:15 Sunny 77 25.1 60 15.8 56 56 E 3 6 29.88 1012 10 16.0934 0 0
6:35 pm 18:35 Sunny 77 25.1 62 16.5 59 59 ENE 3 6 29.88 1012 10 16.0934 0 0
6:55 pm 18:55 Sunny 77 25.1 60 15.8 56 56 SE 5 7 29.88 1012 10 16.0934 0 0
7:15 pm 19:15 Sunny 77 25.1 60 15.7 56 56 SE 3 6 29.88 1012 10 16.0934 0 0
7:35 pm 19:35 Sunny 77 25 62 16.8 60 60 SE 5 7 29.88 1012 10 16.0934 0 0
7:55 pm 19:55 Sunny 76 24.6 63 17.2 64 64 SE 3 6 29.88 1012 10 16.0934 0 0
8:15 pm 20:15 Sunny 75 24 65 18.1 70 70 ESE 5 7 29.88 1012 10 16.0934 0 0
8:35 pm 20:35 Sunny 73 22.8 66 19 79 79 ESE 5 7 29.91 1013 10 16.0934 0 0
8:55 pm 20:55 Sunny 71 21.7 66 19 85 85 ESE 6 9 29.91 1013 10 16.0934 0 0
9:15 pm 21:15 Clear 70 21 66 18.8 87 87 SE 7 11 29.91 1013 10 16.0934 0 0
9:35 pm 21:35 Clear 68 20.1 65 18.5 91 91 ESE 7 11 29.91 1013 10 16.0934 0 0
9:55 pm 21:55 Clear 68 19.9 64 17.9 88 88 SE 8 13 29.91 1013 10 16.0934 0 0
10:15 pm 22:15 Clear 65 18.6 64 17.5 93 93 ESE 7 11 29.97 1015 10 16.0934 0 0
10:35 pm 22:35 Clear 67 19.2 63 17.4 89 89 SE 7 11 29.97 1015 10 16.0934 0 0
10:55 pm 22:55 Clear 65 18.6 63 17.1 91 91 SE 7 11 29.97 1015 10 16.0934 0 0
11:15 pm 23:15 Clear 65 18.3 63 17 92 92 SE 7 11 29.97 1015 10 16.0934 0 0
11:35 pm 23:35 Clear 64 18 62 16.6 92 92 SE 7 11 29.97 1015 10 16.0934 0 0
11:55 pm 23:55 Clear 64 17.9 62 16.5 92 92 SE 7 11 29.97 1015 10 16.0934 0 0

Powered by AerisWeather